KLM708 KTPA-

Flight info

Callsign KLM708
Flight time N/A
Altitude VFR
Route
Aircraft B737/M-VGDW/C

Departure

Time 2026-05-04 23:16
Airport Tampa International Airport (KTPA)

Arrival

Time N/A
Airport -
Time Latitude Longitude Altitude Speed Heading
2026-05-04 23:03 27.97497 -82.53606 18 ft 0 kts 21°
2026-05-04 23:04 27.97516 -82.53630 18 ft 6 kts 260°
2026-05-04 23:04 27.97498 -82.53692 18 ft 9 kts 266°
2026-05-04 23:05 27.97499 -82.53716 18 ft 0 kts 276°
2026-05-04 23:05 27.97502 -82.53733 18 ft 0 kts 288°
2026-05-04 23:07 27.97503 -82.53738 18 ft 1 kts 288°
2026-05-04 23:07 27.97499 -82.53773 18 ft 5 kts 239°
2026-05-04 23:07 27.97476 -82.53795 18 ft 2 kts 234°
2026-05-04 23:08 27.97473 -82.53801 18 ft 1 kts 249°
2026-05-04 23:08 27.97476 -82.53853 17 ft 10 kts 285°
2026-05-04 23:08 27.97498 -82.53920 15 ft 3 kts 284°
2026-05-04 23:08 27.97497 -82.53961 15 ft 6 kts 250°
2026-05-04 23:09 27.97465 -82.53991 15 ft 5 kts 193°
2026-05-04 23:09 27.97430 -82.53994 15 ft 6 kts 182°
2026-05-04 23:09 27.97384 -82.53996 15 ft 6 kts 192°
2026-05-04 23:09 27.97337 -82.54050 14 ft 10 kts 241°
2026-05-04 23:10 27.97329 -82.54064 14 ft 0 kts 232°
2026-05-04 23:10 27.97327 -82.54067 14 ft 4 kts 226°
2026-05-04 23:10 27.97258 -82.54081 13 ft 14 kts 182°
2026-05-04 23:10 27.97143 -82.54083 12 ft 18 kts 180°
2026-05-04 23:11 27.96985 -82.54089 12 ft 23 kts 181°
2026-05-04 23:11 27.96824 -82.54096 12 ft 22 kts 180°
2026-05-04 23:11 27.96673 -82.54101 12 ft 23 kts 182°
2026-05-04 23:11 27.96494 -82.54108 12 ft 26 kts 178°
2026-05-04 23:12 27.96436 -82.54127 12 ft 0 kts 223°
2026-05-04 23:12 27.96435 -82.54127 12 ft 1 kts 223°
2026-05-04 23:13 27.96405 -82.54179 12 ft 12 kts 248°
2026-05-04 23:13 27.96419 -82.54231 12 ft 0 kts
2026-05-04 23:13 27.96422 -82.54230 12 ft 7 kts
2026-05-04 23:14 27.96705 -82.54226 12 ft 72 kts
2026-05-04 23:14 27.97398 -82.54202 14 ft 124 kts
2026-05-04 23:14 27.98403 -82.54170 49 ft 158 kts
2026-05-04 23:14 27.99532 -82.54131 188 ft 167 kts
2026-05-04 23:15 28.00742 -82.54062 282 ft 187 kts
2026-05-04 23:15 28.02170 -82.53975 274 ft 229 kts
2026-05-04 23:15 28.03899 -82.53859 427 ft 264 kts
2026-05-04 23:15 28.05844 -82.53722 623 ft 301 kts
2026-05-04 23:16 28.08063 -82.53565 981 ft 331 kts
2026-05-04 23:16 28.10433 -82.53396 1492 ft 355 kts
2026-05-04 23:16 28.12968 -82.53213 1905 ft 381 kts
2026-05-04 23:16 28.15763 -82.53008 2004 ft 413 kts
2026-05-04 23:17 28.18702 -82.52786 2041 ft 443 kts
2026-05-04 23:17 28.21863 -82.52550 2213 ft 465 kts
2026-05-04 23:17 28.25112 -82.52306 2980 ft 471 kts
2026-05-04 23:17 28.28367 -82.52035 3975 ft 471 kts
2026-05-04 23:18 28.31630 -82.51970 4643 ft 478 kts 354°
2026-05-04 23:18 28.34885 -82.52962 5024 ft 491 kts 338°
2026-05-04 23:18 28.37785 -82.54978 5544 ft 497 kts 321°
2026-05-04 23:18 28.40120 -82.57868 6251 ft 498 kts 306°
2026-05-04 23:19 28.41670 -82.61362 7252 ft 493 kts 292°
2026-05-04 23:19 28.42831 -82.64932 8504 ft 481 kts 290°
2026-05-04 23:19 28.43965 -82.68465 9502 ft 475 kts 290°
2026-05-04 23:19 28.45207 -82.71974 10057 ft 479 kts 298°
2026-05-04 23:20 28.47227 -82.74996 10161 ft 492 kts 315°
2026-05-04 23:20 28.50007 -82.77292 10333 ft 504 kts 330°